User: anonymous   Login
Location: Carri�res
(48.9069°N, 2.1792°E)
Time: 19:39:27
(UTC+00:00)
Language:

Cosmos 1844 Rocket - Orbit

View from above orbital plane
View from above orbital plane
View from above satellite
View from above satellite

Ground track
Ground track

The orbit data is extracted from the following two-line orbital elements,

1 17974U 87041B   21126.49905542  .00000196  00000-0  12043-3 0  9997
2 17974  71.0064 159.4069 0013069  17.0527  86.4333 14.17274752757773
Epoch (UTC): 06 May 2021 11:58:38
Eccentricity: 0.0013069
inclination: 71.0064°
perigee height: 825 km
apogee height: 844 km
right ascension of ascending node: 159.4069°
argument of perigee: 17.0527°
revolutions per day: 14.17274752
mean anomaly at epoch: 86.4333°
orbit number at epoch: 75777

The dashed part of the orbit path shows where the satellite is in the earth's shadow,  

DLR